Regional Weather Roundup
Issued by NWS Upton, NY

Home | Current Version | Previous Version | Text Only | Print | Product List | Glossary On
Versions: 1 2 3 4 5 6 7 8 9 10 11 12 13 14 15 16 17 18 19 20 21 22 23 24 25 26 27 28 29 30 31 32 33 34 35 36 37 38 39 40 41 42 43 44 45 46 47 48 49 50
000
ASUS41 KOKX 021905
RWROKX

REGIONAL WEATHER ROUNDUP
NATIONAL WEATHER SERVICE NEW YORK NY
300 PM EDT TUE SEP 02 2014

NOTE: "FAIR" INDICATES FEW OR NO CLOUDS BELOW 12,000 FEET WITH NO
SIGNIFICANT WEATHER AND/OR OBSTRUCTIONS TO VISIBILITY.

NYZ071-072-176-178-NJZ106-104-022000-
NEW YORK CITY METRO AREA


CITY           SKY/WX    TMP DP  RH WIND       PRES   REMARKS
CENTRAL PARK   MOSUNNY   92  68  45 VRB3      29.86F HX  96
LAGUARDIA APRT PTSUNNY   91  67  44 SW12      29.83F HX  94
KENNEDY INTL   PTSUNNY   89  71  55 S15       29.86F HX  95
NEWARK/LIBERTY PTSUNNY   94  67  41 SW13      29.84F HX  97
BRNX BOT. GARD   N/A     91  66  43 W10       29.85F HX  94
TETERBORO      SUNNY     93  67  41 W12G20    29.82F HX  96
$$

NYZ177-179-078>081-022000-
LONG ISLAND NEW YORK

CITY           SKY/WX    TMP DP  RH WIND       PRES   REMARKS
FARMINGDALE    SUNNY     87  72  60 SW13      29.85F HX  93
ISLIP          CLOUDY    87  71  58 SW15      29.84F HX  93
SHIRLEY        SUNNY     85  73  67 SW12      29.87F HX  91
WESTHAMPTON    SUNNY     85  71  63 SW10      29.88F HX  90
MONTAUK POINT    N/A     82  73  74 S7        29.87F
$$

NYZ052-065-067-022000-
HUDSON VALLEY

CITY           SKY/WX    TMP DP  RH WIND       PRES   REMARKS
WHITE PLAINS   PTSUNNY   81  70  69 S3        29.85F
NEWBURGH       MOSUNNY   86  70  58 W7        29.85F HX  90
MONTGOMERY     PTSUNNY   88  68  51 SW12      29.83F HX  91
POUGHKEEPSIE   SUNNY     91  70  49 VRB5      29.81F HX  96
ALBANY         LGT RAIN  77  69  76 SW13      29.83F
$$

NJZ001-105-106-008-010-013-015-019>022-104-022000-
NEW JERSEY

CITY           SKY/WX    TMP DP  RH WIND       PRES   REMARKS
NEWARK/LIBERTY PTSUNNY   94  67  41 SW13      29.84F HX  97
TETERBORO      SUNNY     93  67  41 W12G20    29.82F HX  96
CALDWELL       MOSUNNY   90  67  46 SW10      29.85F HX  93
MORRISTOWN     PTSUNNY   90  68  48 SW12G18   29.85F HX  93
SOMERVILLE     NOT AVBL
LINDEN         FAIR      96  70  43 W7        29.86F HX 102
SUSSEX         MOSUNNY   89  69  51 VRB7      29.85F HX  93
ANDOVER          N/A     86  69  56 SW10      29.87F HX  90
TRENTON        MOSUNNY   90  69  50 SW8       29.87F HX  94
MILLVILLE      SUNNY     91  70  49 W8G16     29.90F HX  96
ATLANTIC CITY  SUNNY     91  70  49 SW10      29.89F HX  96
WRIGHTSTOWN    MOSUNNY   91  73  54 SW13      29.85F HX  99
TOMS RIVER     MOSUNNY   93  70  46 SW12      29.88F HX  99
BELMAR         MOSUNNY   90  72  55 W10G17    29.88F HX  96
$$

PAZ047>061-062-071-022000-
EASTERN PENNSYLVANIA

CITY           SKY/WX    TMP DP  RH WIND       PRES   REMARKS
PHILADELPHIA   PTSUNNY   93  69  45 SW13      29.89F HX  98
ALLENTOWN      MOSUNNY   90  67  46 SW15G22   29.88F HX  93
SCRANTON       SUNNY     87  65  47 W14G21    29.88F
$$

CTZ002-004>006-009-010-012-RIZ004-006-007-MAZ004-011-015-022000-
SOUTHERN NEW ENGLAND
 IN CT

CITY           SKY/WX    TMP DP  RH WIND       PRES   REMARKS
BRADLEY INTL   PTSUNNY   90  69  50 SW12      29.81F HX  94
HARTFORD       PTSUNNY   88  70  55 S8        29.81F HX  93
DANBURY        MOSUNNY   88  68  51 SW10      29.86F HX  91
WTRBRY/OXFORD  MOSUNNY   84  72  65 SW6       29.89F
BRIDGEPORT     MOSUNNY   90  71  53 SW10      29.83F HX  96
MERIDEN        MOSUNNY   89  69  51 SW12      29.83F HX  93
NEW HAVEN      PTSUNNY   89  73  59 S8        29.84F HX  97
CHESTER        FAIR      86  73  66 S13       29.87F HX  93
GROTON         MOSUNNY   78  73  84 S9        29.85F
WILLIMANTIC    MOSUNNY   88  70  55 S9G24     29.84S HX  93

 IN RI

CITY           SKY/WX    TMP DP  RH WIND       PRES   REMARKS
PROVIDENCE     PTSUNNY   89  72  56 S14G22    29.84F HX  96
BLOCK ISLAND   SUNNY     79  72  78 SW15      29.88F
WESTERLY       MOSUNNY   83  72  69 S14       29.87F

 IN MA

CITY           SKY/WX    TMP DP  RH WIND       PRES   REMARKS
BOSTON         PTSUNNY   88  70  55 S14G21    29.79F HX  93
WORCESTER      PTSUNNY   82  72  71 W9        29.87F
WESTFIELD      PTSUNNY   89  71  55 SW10G21   29.81F HX  95
PROVINCETOWN   SUNNY     82  73  74 S12G20    29.83F
NANTUCKET      PTSUNNY   75  72  88 SW10      29.87F HAZE
$$

ANZ330-335-338-340-345-350-353-355-022000-
COASTAL MARINE OBSERVATIONS


STATION/POSITION TIME  SKY/WX   TEMP    WIND        PRES    VSBY  WAVE
                                AIR SEA DIR/SP/G                  HT/PER
                 (UTC)          (F)     (DEG/KT/KT) (MB)    (MI)  (FT/S)
NY HARB ENTRANCE NOT AVBL
4S FIRE IS       NOT AVBL
23SW MTP         1900                                 N/A           3/ 5
HUDSON CANYON    1900            76 76  230/  8/ 10 1012.6          3/ 6
EXECUTION ROCKS  1900            84 76  210/  8/ 10   N/A
WESTERN LI SOUND 1900            86     210/  8/ 10   N/A           0
CENTRAL LI SOUND 1900            80 79  140/  4/  6   N/A           0
EASTERN LI SOUND 1800            76 72  170/  8/ 12   N/A
ROBBINS REEF     1900            88     270/ 12/ 16   N/A
$$


>>>>>>>>>>>>>>>>>>>>>>>>>>>> KEY <<<<<<<<<<<<<<<<<<<<<<<<<<<
>                                                          <
>     SKY/WX - SKY CONDITION/PRESENT WEATHER               <
>     TMP    - TEMPERATURE IN FAHRENHEIT                   <
>     DP     - DEWPOINT IN FAHRENHEIT                      <
>     RH     - RELATIVE HUMIDITY IN PERCENT                <
>     WIND   - DIRECTION AND SPEED IN MPH                  <
>     PRES   - MEAN SEA LEVEL PRESSURE IN INCHES OF HG     <
>     WCI    - WIND CHILL INDEX                            <
>     VSB    - VISIBILITY IN MILES                         <
>     HX     - HEAT INDEX                                  <
>     TC     - TEMPERATURE IN CELSIUS                      <
>     VRB    - VARIABLE WIND DIRECTION                     <
>                                                          <
>>>>>>>>>>>>>>>>>>>>>>>>>>>> KEY <<<<<<<<<<<<<<<<<<<<<<<<<<<




USA.gov is the U.S. government's official web portal to all federal, state and local government web resources and services.